Home > Weather > Montevideo > Past weeks

Flag for Uruguay Weather for the Past 2 Weeks in Montevideo, Uruguay

Now
77 °F

Passing clouds.


Feels Like: 78 °F
Forecast: 68 / 80 °F
Wind: 9 mph from Southeast

Location: Carrasco

Current Time: Feb 10, 2016 at 2:17:31 AM

Latest Report: Feb 10, 2016 at 1:00 AM


Visibility: N/A

Pressure: 29.89 "Hg

Humidity: 89%

Dew point: 73 °F

Location of MontevideoLocation

Historic Weather in Montevideo — Graph

°F

Montevideo Temperature Yesterday

Maximum temperature yesterday: 88 °F (at 3:00 PM)
Minimum temperature yesterday: 70 °F (at 5:00 AM)
Average temperature yesterday: 79 °F

High & Low Weather Summary for the Past Weeks

 TemperatureHumidityPressure
High90 °F (Feb 7, 2:00 PM)94% (Feb 2, 4:00 AM)30.12 "Hg (Feb 2, 4:00 AM)
Low57 °F (Feb 1, 7:00 AM)35% (Jan 28, 1:00 PM)29.74 "Hg (Feb 8, 7:00 PM)
Average74 °F70%29.96 "Hg
* Reported Jan 26 1:00 AM — Feb 10 1:00 AM, Montevideo, Weather by CustomWeather, © 2016

Note: Actual official high and low records may vary slightly from our data, if they occured in-between our weather recording intervals... More about our weather records

Advertising

Montevideo Weather History for the Previous 24 Hours

 ConditionsComfort  
Time TempWeatherWind HumidityBarometerVisibility
1:00 AM
Wed, Feb 10
77 °FPassing clouds.9 mph89%29.89 "HgN/A
12:00 AM77 °FClear.8 mph89%29.89 "Hg10 mi
11:00 PM
Tue, Feb 9
79 °FClear.12 mph84%29.86 "Hg10 mi
10:00 PM79 °FClear.3 mph74%29.86 "Hg10 mi
9:00 PM81 °FClear.5 mph66%29.83 "Hg10 mi
8:00 PM81 °FClear.3 mph70%29.83 "Hg10 mi
7:00 PM86 °FSunny.6 mph52%29.83 "Hg10 mi
6:00 PM88 °FPassing clouds.8 mph49%29.83 "HgN/A
5:00 PM88 °FPassing clouds.7 mph52%29.83 "HgN/A
4:00 PM88 °FPassing clouds.10 mph43%29.83 "HgN/A
3:00 PM88 °FPassing clouds.12 mph49%29.83 "HgN/A
2:00 PM86 °FPassing clouds.12 mph52%29.83 "HgN/A
1:00 PM86 °FPassing clouds.10 mph46%29.83 "HgN/A
12:00 PM84 °FPassing clouds.12 mph51%29.83 "HgN/A
11:00 AM82 °FPassing clouds.7 mph66%29.83 "HgN/A
10:00 AM79 °FPassing clouds.8 mph74%29.83 "HgN/A
9:00 AM77 °FPassing clouds.8 mph74%29.83 "HgN/A
8:00 AM72 °FPassing clouds.7 mph88%29.83 "HgN/A
7:00 AM70 °FScattered showers. Partly sunny.6 mph88%29.77 "HgN/A
6:00 AM70 °FLight rain. Passing clouds.3 mph88%29.74 "HgN/A
5:00 AM70 °FHeavy rain. Overcast.10 mph88%29.77 "Hg1 mi
4:00 AM73 °FPassing clouds.5 mph89%29.77 "HgN/A
3:00 AM72 °FFog.3 mph94%29.77 "HgN/A
2:00 AM72 °FPartly cloudy.2 mph94%29.77 "HgN/A
Weather by CustomWeather, © 2016

See weather overviewHow to use our weather pages